Regional Weather Roundup
Issued by NWS

Home | Current Version | Previous Version | Graphics & Text | Print | Product List | Glossary On
Versions: 1 2 3 4 5 6 7 8 9 10 11 12 13 14 15 16 17 18 19 20 21 22 23 24 25 26 27
000
ASUS45 KCYS 210410
RWRWY

WYOMING REGIONAL WEATHER ROUNDUP
NATIONAL WEATHER SERVICE CHEYENNE WY
900 PM MST FRI JAN 20 2017

NOTE:  "FAIR" INDICATES FEW OR NO CLOUDS BELOW 12,000 FEET
WITH NO SIGNIFICANT WEATHER AND/OR OBSTRUCTIONS TO VISIBILITY.

WYZ001-210500-
YELLOWSTONE NATIONAL PARK

CITY           SKY/WX    TMP DP  RH WIND       PRES   REMARKS
LK YELLOWSTONE   N/A      8   6  92 CALM      29.36F
W YELLOWSTONE  NOT AVBL

$$
WYZ002>013-054>058-071-098>099-210500-
NORTHERN WYOMING

CITY           SKY/WX    TMP DP  RH WIND       PRES   REMARKS
JACKSON        CLOUDY    18  16  93 N8        29.36F WCI   7
CODY           FAIR      16  14  92 S8        29.38F WCI   5
GREYBULL       CLOUDY    11   9  92 W6        29.39S FOG     WCI   1
WORLAND        FOG       18  18 100 E3        29.38S VSB 1
SHERIDAN       MOCLDY    31  26  82 VRB7      29.38F WCI  24
BUFFALO        CLOUDY    34  28  79 CALM      29.38F
GILLETTE       FAIR      29  29 100 W5        29.38F WCI  24
HULETT         LGT SNOW  32  32 100 MISG      29.38S
NEWCASTLE      FLURRIES  32  32 100 N5        29.39S WCI  27

$$
WYZ014>020-022>026-101>103-210500-
CENTRAL WYOMING

CITY           SKY/WX    TMP DP  RH WIND       PRES   REMARKS
BIG PINEY      FOG       -5  -6  96 NW5       29.41F VSB 1/4 WCI -16
PINEDALE       FAIR      -8 -11  84 NW8       29.41S WCI -23
DUBOIS         NOT AVBL
LANDER         FAIR      18  14  84 W7        29.37F WCI   9
RIVERTON       FAIR     N/A N/A N/A CALM      29.39F
CASPER         FAIR      25  18  74 SW9       29.40F WCI  15
DOUGLAS        FAIR      26  21  81 NW7       29.40F WCI  18

$$
WYZ021-027>030-104>119-210500-
SOUTHERN WYOMING

CITY           SKY/WX    TMP DP  RH WIND       PRES   REMARKS
EVANSTON       CLOUDY    22  14  71 E10       29.33F WCI  11
ROCK SPRINGS   FAIR      19  12  74 SE13      29.39F WCI   6
RAWLINS        FAIR      19  13  77 SW7       29.43F WCI  10
LARAMIE        FAIR      23  11  60 SW6       29.41F WCI  16
CHEYENNE       FAIR      28  16  60 W12       29.42R WCI  18
TORRINGTON     FAIR      32  30  92 W3        29.40S

$$




USA.gov is the U.S. government's official web portal to all federal, state and local government web resources and services.